Home > Weather > Sunrise > Past weeks

Flag for USA Past Weather in Sunrise, Florida, USA — Yesterday and Last 2 Weeks

Now
83 °F

Thunderstorms. Passing clouds.


Feels Like: 88 °F
Forecast: 77 / 88 °F
Wind: 5 mph from South

Location: Fort Lauderdale Executive Airport

Current Time: Jul 23, 2016 at 10:57:11 PM

Latest Report: Jul 23, 2016 at 9:53 PM


Visibility: 10 mi

Pressure: 30.04 "Hg

Humidity: 70%

Dew Point: 72 °F

Location of SunriseLocation

Past Weather in Sunrise — Graph

°F

Sunrise Temperature Yesterday

Maximum temperature yesterday: 89 °F (at 11:53 AM)
Minimum temperature yesterday: 78 °F (at 11:53 PM)
Average temperature yesterday: 83 °F

High & Low Weather Summary for the Past Weeks

 TemperatureHumidityPressure
High93 °F (Jul 12, 2:53 PM)90% (Jul 14, 7:53 AM)30.19 "Hg (Jul 14, 7:53 AM)
Low76 °F (Jul 16, 2:04 AM)46% (Jul 10, 2:53 PM)29.99 "Hg (Jul 23, 6:53 PM)
Average85 °F69%30.09 "Hg
* Reported Jul 8 8:53 PM — Jul 23 8:53 PM, Sunrise, Weather by CustomWeather, © 2016

Note: Actual official high and low records may vary slightly from our data, if they occured in-between our weather recording intervals... More about our weather records

Advertising

Sunrise Weather History for the Previous 24 Hours

Scroll right to see more
 ConditionsComfort  
Time TempWeatherWind HumidityBarometerVisibility
8:53 PM
Sat, Jul 23
83 °FScattered clouds.5 mph72%30.01 "Hg10 mi
7:53 PM84 °FScattered clouds.7 mph70%30.02 "Hg10 mi
6:53 PM84 °FScattered clouds.8 mph67%29.99 "Hg10 mi
5:53 PM85 °FScattered clouds.10 mph65%30.00 "Hg10 mi
4:53 PM84 °FScattered clouds.10 mph70%30.00 "Hg10 mi
3:53 PM84 °FThunderstorms. Scattered clouds.8 mph74%30.02 "Hg10 mi
2:53 PM85 °FThunderstorms. Scattered clouds.9 mph68%30.02 "Hg10 mi
1:53 PM88 °FThunderstorms. Scattered clouds.12 mph63%30.03 "Hg10 mi
12:53 PM86 °FScattered clouds.10 mph67%30.04 "Hg10 mi
11:53 AM89 °FScattered clouds.6 mph53%30.05 "Hg10 mi
10:53 AM89 °FScattered clouds.6 mph57%30.04 "Hg10 mi
9:53 AM85 °FScattered clouds.3 mph68%30.03 "Hg10 mi
8:53 AM83 °FPassing clouds.3 mph74%30.03 "Hg10 mi
7:53 AM79 °FScattered clouds.No wind84%30.03 "Hg10 mi
6:53 AM77 °FPassing clouds.No wind88%30.02 "Hg10 mi
5:53 AM77 °FClear.No wind88%30.02 "Hg10 mi
4:53 AM77 °FClear.3 mph85%30.02 "Hg10 mi
3:53 AM77 °FClear.3 mph82%30.02 "Hg10 mi
2:53 AM77 °FClear.3 mph85%30.03 "Hg10 mi
1:53 AM77 °FClear.No wind85%30.03 "Hg10 mi
12:53 AM78 °FClear.No wind82%30.05 "Hg10 mi
11:53 PM
Fri, Jul 22
78 °FClear.3 mph82%30.06 "Hg10 mi
10:53 PM79 °FClear.6 mph79%30.06 "Hg10 mi
Weather by CustomWeather, © 2016

See weather overviewHow to use our weather pages